#timestamp,LO_Frequency,Hit,StdDev 
1522594815.4,286047004.7,N
1522594835.3,286047005.6,N
1522594855.1,286047005.0,N
1522594875.8,286047003.9,N
1522594895.7,286047002.5,N
1522594915.5,286047002.4,N
1522594935.4,286047000.9,N
1522594955.2,286047002.7,N
1522594975.0,286046999.7,N
1522594975.9,286046999.7,N
1522594995.8,286047000.8,N
1522595015.6,286046999.3,N
1522595035.4,286046997.3,N
1522595055.3,286046995.9,N
1522595075.1,286046995.2,N
1522595095.9,286046997.8,N
1522595115.7,286046995.5,N
1522595135.5,286046993.4,N
1522595155.4,286046996.8,N
1522595175.2,286046998.5,N
1522595195.1,286046998.4,N
1522595196.0,286046998.4,N
1522595215.8,286046999.1,N
1522595235.6,286046991.9,N
1522595255.5,286046991.2,N
1522595275.3,286046991.0,N
1522595295.1,286046991.6,N
1522595315.9,286046989.8,N
1522595335.7,286046985.6,Y
1522595355.6,286046985.5,P
1522595375.4,286046985.0,N
1522595395.2,286046986.0,N
1522595415.1,286046989.9,N
1522595416.0,286046989.9,N
1522595435.8,286046989.3,N
1522595455.7,286046988.3,N
1522595475.5,286046982.8,Y
1522595495.3,286046994.2,P
1522595515.2,286046990.6,P
1522595535.0,286046991.9,P
1522595535.9,286046991.9,Y
1522595555.8,286047002.0,P
1522595575.6,286047002.6,N
1522595595.4,286047002.1,N
1522595615.3,286047002.4,N
1522595635.1,286047001.9,N
1522595655.9,286046999.6,N
1522595675.7,286046999.8,N
1522595695.5,286047002.3,N
1522595715.4,286047001.7,N
1522595735.2,286047000.1,N
1522595755.0,286047004.4,N
1522595755.9,286047004.4,N
1522595775.8,286047007.1,N
1522595795.6,286047005.7,N
1522595815.5,286047005.7,N
1522595835.3,286047005.0,N
1522595855.1,286047004.6,N
1522595875.9,286047004.3,N
1522595895.7,286047002.2,N
1522595915.5,286047004.4,N
1522595935.4,286047001.7,N
1522595955.2,286047005.5,N
1522595975.1,286047009.2,N
1522595976.0,286047009.2,N
1522595995.8,286047006.7,N
1522596015.6,286047006.6,N
1522596035.5,286047004.6,N
1522596055.3,286047004.8,N
1522596075.2,286047003.5,N
1522596095.9,286047003.3,N
1522596115.7,286047006.0,N
1522596135.6,286047003.0,N
1522596155.4,286047001.4,N
1522596175.2,286047005.1,N
1522596195.1,286047004.7,N
1522596196.0,286047004.7,N
1522596215.8,286047004.9,N
1522596235.7,286047008.5,Y
1522596255.5,286047006.3,P
1522596275.3,286047010.0,P
1522596295.2,286047006.7,N
1522596315.0,286047004.6,N
1522596315.9,286047004.6,N
1522596335.8,286047015.2,Y
1522596355.6,286047007.0,P
1522596375.4,286047008.7,P
1522596395.3,286047009.9,P
1522596415.1,286047011.9,Y
1522596435.8,286047005.3,P
1522596455.7,286047004.8,P
1522596475.5,286047010.3,P
1522596495.4,286047008.5,Y
1522596515.2,286046999.8,P
1522596535.0,286047003.0,N
1522596535.9,286047003.0,N
1522596555.8,286047003.7,N
1522596575.6,286047005.0,N
1522596595.5,286047006.9,Y
1522596615.3,286047004.0,P
1522596635.1,286047003.7,P
1522596655.9,286047001.4,P
1522596675.7,286046996.0,Y
1522596695.6,286046992.9,P
1522596715.4,286046994.7,N
1522596735.2,286046996.0,N
1522596755.1,286046999.1,N
1522596756.0,286046999.1,N
1522596775.8,286046996.6,N
1522596795.7,286046998.0,N
1522596815.5,286046997.7,N
1522596835.3,286046997.4,N
1522596855.2,286047001.2,N
1522596875.0,286047001.3,N
1522596875.9,286047001.3,N
1522596895.7,286047004.7,N
1522596915.6,286047002.9,N
1522596935.4,286047005.8,N
1522596955.3,286047006.7,N
1522596975.1,286047006.3,N
1522596976.0,286047006.3,N
1522596995.8,286047008.6,N
1522597015.7,286047010.2,N
1522597035.5,286047009.8,N
1522597055.3,286047010.5,N
1522597075.2,286047008.4,N
1522597095.0,286047005.9,N
1522597095.9,286047005.9,N
1522597115.8,286047001.4,N
1522597135.6,286047002.8,N
1522597155.4,286047005.7,N
1522597175.3,286047008.1,N
1522597195.1,286047011.6,N
1522597215.9,286047015.6,Y
1522597235.7,286047015.1,P
1522597255.5,286047018.3,P
1522597275.4,286047014.7,N
1522597295.2,286047020.4,Y
1522597315.0,286047012.3,P
1522597315.9,286047012.3,P
1522597335.8,286047011.4,P
1522597355.6,286047010.1,Y
1522597375.5,286046995.3,P
1522597395.3,286046994.4,N
1522597415.1,286046992.1,N
1522597435.9,286046992.2,N
1522597455.7,286046994.4,N
1522597475.5,286046990.8,N
1522597495.4,286046991.3,N
1522597515.2,286046990.9,N
1522597535.1,286046991.5,N
1522597536.0,286046991.5,N
1522597555.8,286046985.5,N
1522597575.6,286046984.5,N
1522597595.5,286046980.9,Y
1522597615.3,286046988.8,P
1522597635.2,286046992.7,P
1522597655.9,286046990.4,P
1522597675.7,286046991.9,Y
1522597695.6,286047003.5,P
1522597715.4,286047013.8,N
1522597735.3,286047013.4,N
1522597755.1,286047014.4,N
1522597756.0,286047014.4,N
1522597775.8,286047011.1,N
1522597795.7,286047012.8,N
1522597815.5,286047009.7,N
1522597835.3,286047007.2,N
1522597855.2,286047007.0,N
1522597875.0,286047011.9,N
1522597875.9,286047001.6,N
1522597895.8,286047001.2,N
1522597915.6,286046995.1,N
1522597935.4,286046992.5,N
1522597955.3,286046990.5,N
1522597975.1,286046999.2,N
1522597995.9,286047001.9,N
1522598015.7,286047002.5,N
1522598035.5,286047002.7,N
1522598055.4,286047002.6,N
                           